When you browse on this site, cookies collect data to enhance your experience and personalize the content and advertising you see.
Visit our Privacy Policy to learn more. By continuing to use the site, you agree to this use of cookies and data.
  • In Netherlands
  • List of Countries
  • For 7 days
  • Water Temperature
  • Weather Map
  • Weather Widgets
  • user-avatar
    Login

    Hourly Weather Shumen

    Today, 22 August, Thursday

    Time Temperature Precipitation Wind Pressure Humidity
    00:00 +22°C° 0 mm 1 mps 732 mmHg 58%
    01:00 +22°C° 0 mm 1 mps 732 mmHg 57%
    02:00 +21°C° 0 mm 2 mps 732 mmHg 58%
    03:00 +21°C° 0 mm 2 mps 732 mmHg 56%
    04:00 +21°C° 0 mm 2 mps 732 mmHg 54%
    05:00 +20°C° 0 mm 2 mps 732 mmHg 53%
    06:00 +23°C° 0 mm 2 mps 732 mmHg 47%
    07:00 +25°C° 0 mm 3 mps 733 mmHg 41%
    08:00 +27°C° 0 mm 4 mps 734 mmHg 35%
    09:00 +29°C° 0 mm 5 mps 734 mmHg 32%
    10:00 +32°C° 0 mm 5 mps 734 mmHg 30%
    11:00 +34°C° 0 mm 6 mps 734 mmHg 27%
    12:00 +35°C° 0 mm 6 mps 734 mmHg 26%
    13:00 +35°C° 0 mm 6 mps 734 mmHg 25%
    14:00 +36°C° 0 mm 6 mps 734 mmHg 24%
    15:00 +36°C° 0 mm 6 mps 734 mmHg 24%
    16:00 +35°C° 0 mm 6 mps 733 mmHg 25%
    17:00 +35°C° 0 mm 6 mps 733 mmHg 25%
    18:00 +33°C° 0 mm 5 mps 733 mmHg 30%
    19:00 +29°C° 0 mm 4 mps 733 mmHg 35%
    20:00 +26°C° 0 mm 3 mps 733 mmHg 40%
    21:00 +25°C° 0 mm 3 mps 734 mmHg 43%
    22:00 +24°C° 0 mm 3 mps 734 mmHg 46%
    23:00 +22°C° 0 mm 3 mps 734 mmHg 49%

    Tomorrow, 23 August, Friday

    Time Temperature Precipitation Wind Pressure Humidity
    00:00 +22°C° 0 mm 3 mps 734 mmHg 54%
    01:00 +21°C° 0 mm 3 mps 734 mmHg 59%
    02:00 +21°C° 0 mm 4 mps 734 mmHg 64%
    03:00 +20°C° 0 mm 4 mps 733 mmHg 70%
    04:00 +19°C° 0 mm 3 mps 733 mmHg 76%
    05:00 +19°C° 0 mm 3 mps 733 mmHg 81%
    06:00 +20°C° 0 mm 4 mps 733 mmHg 75%
    07:00 +22°C° 0 mm 4 mps 734 mmHg 68%
    08:00 +25°C° 0 mm 4 mps 734 mmHg 62%
    09:00 +27°C° 0 mm 5 mps 734 mmHg 53%
    10:00 +30°C° 0 mm 6 mps 735 mmHg 44%
    11:00 +33°C° 0 mm 6 mps 735 mmHg 35%
    12:00 +34°C° 0 mm 6 mps 735 mmHg 34%
    13:00 +35°C° 0 mm 6 mps 734 mmHg 32%
    14:00 +36°C° 0 mm 6 mps 734 mmHg 31%
    15:00 +35°C° 0 mm 6 mps 734 mmHg 31%
    16:00 +35°C° 0 mm 5 mps 733 mmHg 32%
    17:00 +34°C° 0 mm 5 mps 733 mmHg 33%
    18:00 +32°C° 0 mm 4 mps 733 mmHg 38%
    19:00 +29°C° 0 mm 3 mps 733 mmHg 43%
    20:00 +27°C° 0 mm 2 mps 734 mmHg 48%
    21:00 +25°C° 0 mm 2 mps 734 mmHg 54%
    22:00 +24°C° 0 mm 2 mps 733 mmHg 59%
    23:00 +22°C° 0 mm 1 mps 733 mmHg 65%

    Day after tomorrow, 24 August, Saturday

    Time Temperature Precipitation Wind Pressure Humidity
    00:00 +22°C° 0 mm 1 mps 733 mmHg 68%
    01:00 +22°C° 0 mm 1 mps 733 mmHg 70%
    02:00 +21°C° 0 mm 1 mps 733 mmHg 73%
    03:00 +21°C° 0 mm 1 mps 733 mmHg 74%
    04:00 +21°C° 0 mm 1 mps 733 mmHg 75%
    05:00 +21°C° 0 mm 1 mps 733 mmHg 76%
    06:00 +23°C° 0 mm 2 mps 734 mmHg 68%
    07:00 +25°C° 0 mm 3 mps 734 mmHg 61%
    08:00 +27°C° 0 mm 4 mps 734 mmHg 53%
    09:00 +29°C° 0 mm 4 mps 735 mmHg 47%
    10:00 +32°C° 0 mm 5 mps 735 mmHg 40%
    11:00 +34°C° 0 mm 5 mps 735 mmHg 33%
    12:00 +34°C° 0 mm 5 mps 735 mmHg 32%
    13:00 +34°C° 0 mm 4 mps 734 mmHg 31%
    14:00 +35°C° 0 mm 4 mps 734 mmHg 31%
    15:00 +34°C° 0 mm 4 mps 734 mmHg 33%
    16:00 +33°C° 0 mm 4 mps 734 mmHg 36%
    17:00 +32°C° 0 mm 4 mps 733 mmHg 38%
    18:00 +29°C° 0 mm 3 mps 733 mmHg 43%
    19:00 +27°C° 0 mm 3 mps 733 mmHg 49%
    20:00 +25°C° 0 mm 3 mps 733 mmHg 54%
    21:00 +24°C° 0 mm 2 mps 733 mmHg 59%
    22:00 +23°C° 0 mm 1 mps 733 mmHg 65%
    23:00 +21°C° 0 mm 1 mps 733 mmHg 70%

    25 August, Sunday

    Time Temperature Precipitation Wind Pressure Humidity
    00:00 +21°C° 0 mm 1 mps 733 mmHg 71%
    01:00 +20°C° 0 mm 1 mps 733 mmHg 73%
    02:00 +20°C° 0 mm 1 mps 732 mmHg 74%
    03:00 +20°C° 0 mm 1 mps 732 mmHg 75%
    04:00 +19°C° 0 mm 1 mps 732 mmHg 76%
    05:00 +19°C° 0 mm 1 mps 732 mmHg 78%
    06:00 +21°C° 0 mm 2 mps 732 mmHg 69%
    07:00 +24°C° 0 mm 3 mps 733 mmHg 60%
    08:00 +26°C° 0 mm 4 mps 733 mmHg 51%
    09:00 +29°C° 0 mm 4 mps 733 mmHg 45%
    10:00 +32°C° 0 mm 5 mps 733 mmHg 38%
    11:00 +34°C° 0 mm 5 mps 733 mmHg 31%
    12:00 +35°C° 0 mm 5 mps 733 mmHg 30%
    13:00 +35°C° 0 mm 5 mps 733 mmHg 29%
    14:00 +36°C° 0 mm 5 mps 732 mmHg 28%
    15:00 +35°C° 0 mm 5 mps 732 mmHg 30%
    16:00 +34°C° 0 mm 5 mps 732 mmHg 32%
    17:00 +33°C° 0 mm 4 mps 732 mmHg 34%
    18:00 +30°C° 0 mm 4 mps 732 mmHg 43%
    19:00 +28°C° 0 mm 3 mps 732 mmHg 52%
    20:00 +25°C° 0 mm 3 mps 732 mmHg 60%
    21:00 +24°C° 0 mm 2 mps 732 mmHg 68%
    22:00 +21°C° 0 mm 2 mps 732 mmHg 75%
    23:00 +21°C° 0 mm 1 mps 732 mmHg 82%

    26 August, Monday

    Time Temperature Precipitation Wind Pressure Humidity
    00:00 +20°C° 0 mm 1 mps 732 mmHg 82%
    01:00 +20°C° 0 mm 1 mps 732 mmHg 83%
    02:00 +20°C° 0 mm 1 mps 732 mmHg 84%
    03:00 +19°C° 0 mm 1 mps 732 mmHg 84%
    04:00 +19°C° 0 mm 1 mps 732 mmHg 83%
    05:00 +19°C° 0 mm 1 mps 732 mmHg 83%
    06:00 +21°C° 0 mm 1 mps 732 mmHg 74%
    07:00 +24°C° 0 mm 2 mps 733 mmHg 64%
    08:00 +26°C° 0 mm 2 mps 733 mmHg 55%
    09:00 +28°C° 0 mm 3 mps 733 mmHg 47%
    10:00 +31°C° 0 mm 3 mps 734 mmHg 39%
    11:00 +34°C° 0 mm 3 mps 734 mmHg 31%
    12:00 +34°C° 0 mm 4 mps 734 mmHg 29%
    13:00 +34°C° 0 mm 4 mps 733 mmHg 28%
    14:00 +34°C° 0 mm 4 mps 733 mmHg 27%
    15:00 +34°C° 0 mm 3 mps 733 mmHg 28%
    16:00 +33°C° 0 mm 3 mps 733 mmHg 30%
    17:00 +31°C° 0 mm 3 mps 733 mmHg 32%
    18:00 +29°C° 0 mm 3 mps 733 mmHg 40%
    19:00 +27°C° 0 mm 2 mps 733 mmHg 49%
    20:00 +25°C° 0 mm 2 mps 733 mmHg 57%
    21:00 +23°C° 0 mm 2 mps 733 mmHg 66%
    22:00 +22°C° 0 mm 1 mps 733 mmHg 74%
    23:00 +20°C° 0 mm 1 mps 733 mmHg 83%

    27 August, Tuesday

    Time Temperature Precipitation Wind Pressure Humidity
    00:00 +20°C° 0 mm 1 mps 733 mmHg 84%
    01:00 +20°C° 0 mm 1 mps 733 mmHg 85%
    02:00 +19°C° 0 mm 1 mps 732 mmHg 86%
    03:00 +19°C° 0 mm 1 mps 732 mmHg 87%
    04:00 +19°C° 0 mm 1 mps 732 mmHg 87%
    05:00 +19°C° 0 mm 1 mps 732 mmHg 88%
    06:00 +21°C° 0 mm 1 mps 733 mmHg 76%
    07:00 +23°C° 0 mm 2 mps 733 mmHg 64%
    08:00 +25°C° 0 mm 2 mps 733 mmHg 53%
    09:00 +28°C° 0 mm 3 mps 734 mmHg 44%
    10:00 +30°C° 0 mm 4 mps 734 mmHg 36%
    11:00 +34°C° 0 mm 5 mps 734 mmHg 27%
    12:00 +34°C° 0 mm 5 mps 734 mmHg 26%
    13:00 +34°C° 0 mm 5 mps 733 mmHg 25%
    14:00 +35°C° 0 mm 5 mps 733 mmHg 24%
    15:00 +34°C° 0 mm 5 mps 733 mmHg 26%
    16:00 +33°C° 0 mm 5 mps 733 mmHg 28%
    17:00 +32°C° 0 mm 5 mps 732 mmHg 30%
    18:00 +29°C° 0 mm 4 mps 732 mmHg 37%
    19:00 +26°C° 0 mm 3 mps 732 mmHg 44%
    20:00 +23°C° 0 mm 2 mps 732 mmHg 52%
    21:00 +21°C° 0 mm 2 mps 732 mmHg 56%
    22:00 +20°C° 0 mm 1 mps 732 mmHg 61%
    23:00 +19°C° 0 mm 1 mps 732 mmHg 66%
    Show more